User: anonymous   Login
Location: Unspecified
(0.0000°N, 0.0000°E)
Time: 08:32:44
(UTC+00:00)
Language:

Tiros 1 despin weight - Orbit

View from above orbital plane
View from above orbital plane
View from above satellite
View from above satellite

Ground track
Ground track

The orbit data is extracted from the following two-line orbital elements,

1 00115U 60002D   16038.14100370  .00000729  00000-0  11623-3 0  9993
2 00115  48.1677   6.6425 0034605  74.0298 286.4422 14.82602794976602
Epoch (UTC): 07 February 2016 03:23:02
Eccentricity: 0.0034605
inclination: 48.1677°
perigee height: 597 km
apogee height: 645 km
right ascension of ascending node: 6.6425°
argument of perigee: 74.0298°
revolutions per day: 14.82602794
mean anomaly at epoch: 286.4422°
orbit number at epoch: 97660

The dashed part of the orbit path shows where the satellite is in the earth's shadow,  

DLR